TimeEDT,TemperatureF,Dew PointF,Humidity,Sea Level PressureIn,VisibilityMPH,Wind Direction,Wind SpeedMPH,Gust SpeedMPH,PrecipitationIn,Events,Conditions,WindDirDegrees,DateUTC
12:53 AM,57.9,57.0,97,29.86,6.0,SE,6.9,-,0.00,Rain,Light Rain,130,2014-05-01 04:53:00
1:21 AM,60.1,59.0,96,29.87,8.0,South,12.7,-,0.00,,Overcast,180,2014-05-01 05:21:00
1:35 AM,60.1,59.0,96,29.86,4.0,South,9.2,-,0.00,Rain,Light Rain,180,2014-05-01 05:35:00
1:53 AM,60.1,59.0,96,29.84,4.0,South,10.4,-,0.00,Rain,Light Rain,180,2014-05-01 05:53:00
2:37 AM,61.0,60.1,97,29.82,2.5,South,9.2,-,0.01,,Overcast,180,2014-05-01 06:37:00
2:53 AM,61.0,60.1,97,29.80,2.5,South,8.1,-,0.01,,Overcast,170,2014-05-01 06:53:00
3:33 AM,61.0,60.1,97,29.80,4.0,South,6.9,-,0.02,Rain,Light Rain,170,2014-05-01 07:33:00
3:53 AM,62.1,61.0,96,29.79,2.5,South,6.9,-,0.03,Rain,Light Rain,190,2014-05-01 07:53:00
4:07 AM,62.1,60.1,93,29.80,1.8,South,5.8,-,0.00,Rain,Light Rain,180,2014-05-01 08:07:00
4:43 AM,62.1,61.0,96,29.79,2.5,South,8.1,-,0.01,,Overcast,190,2014-05-01 08:43:00
4:51 AM,62.6,60.8,94,29.79,3.0,South,8.1,-,0.01,,Overcast,190,2014-05-01 08:51:00
4:53 AM,63.0,62.1,97,29.78,4.0,South,6.9,-,0.01,,Overcast,190,2014-05-01 08:53:00
5:24 AM,63.0,62.1,97,29.79,5.0,South,6.9,-,N/A,,Overcast,190,2014-05-01 09:24:00
5:53 AM,64.0,63.0,96,29.78,5.0,SSW,10.4,-,0.00,Rain,Light Rain,200,2014-05-01 09:53:00
6:50 AM,64.4,62.6,94,29.79,6.0,SSW,9.2,-,0.02,,Overcast,200,2014-05-01 10:50:00
6:53 AM,64.9,63.0,93,29.78,6.0,SW,8.1,-,0.02,,Overcast,220,2014-05-01 10:53:00
7:00 AM,64.9,63.0,93,29.80,6.0,West,5.8,-,N/A,,Overcast,260,2014-05-01 11:00:00
8:53 AM,64.0,61.0,90,29.80,10.0,West,11.5,18.4,N/A,,Overcast,280,2014-05-01 12:53:00
9:11 AM,63.0,59.0,87,29.82,10.0,WNW,11.5,-,N/A,,Overcast,290,2014-05-01 13:11:00
9:34 AM,62.1,57.0,84,29.81,10.0,WNW,11.5,19.6,N/A,,Overcast,290,2014-05-01 13:34:00
9:53 AM,63.0,57.0,81,29.81,10.0,West,10.4,-,N/A,,Overcast,270,2014-05-01 13:53:00
10:53 AM,64.0,57.0,78,29.80,10.0,WNW,8.1,-,N/A,,Overcast,290,2014-05-01 14:53:00
11:53 AM,66.9,57.9,73,29.78,10.0,NNW,6.9,-,N/A,,Partly Cloudy,330,2014-05-01 15:53:00
12:53 PM,70.0,55.9,61,29.76,10.0,West,6.9,-,N/A,,Mostly Cloudy,280,2014-05-01 16:53:00
1:53 PM,73.0,54.0,51,29.74,10.0,West,9.2,-,N/A,,Partly Cloudy,260,2014-05-01 17:53:00
2:53 PM,75.9,52.0,43,29.73,10.0,West,11.5,-,N/A,,Mostly Cloudy,260,2014-05-01 18:53:00
3:53 PM,75.0,50.0,41,29.70,10.0,Variable,4.6,-,N/A,,Mostly Cloudy,0,2014-05-01 19:53:00
4:53 PM,75.9,48.0,37,29.69,10.0,WSW,9.2,-,N/A,,Mostly Cloudy,250,2014-05-01 20:53:00
5:53 PM,75.9,48.0,37,29.67,10.0,West,9.2,-,N/A,,Partly Cloudy,270,2014-05-01 21:53:00
6:53 PM,73.9,48.0,40,29.67,10.0,West,6.9,-,0.00,Rain,Light Rain,280,2014-05-01 22:53:00
7:53 PM,69.1,52.0,54,29.68,10.0,WSW,4.6,-,0.00,,Partly Cloudy,250,2014-05-01 23:53:00
9:15 PM,64.9,55.0,70,29.71,4.0,NW,16.1,28.8,0.06,Rain-Thunderstorm,Rain,310,2014-05-02 01:15:00
9:24 PM,62.1,57.0,84,29.72,3.0,WNW,11.5,29.9,0.11,Rain-Thunderstorm,Thunderstorms and Rain,300,2014-05-02 01:24:00
9:33 PM,61.0,57.9,90,29.72,2.0,NW,8.1,-,0.22,Rain-Thunderstorm,Heavy Thunderstorms and Rain,310,2014-05-02 01:33:00
9:39 PM,62.1,57.9,86,29.73,5.0,WNW,5.8,-,0.22,Rain-Thunderstorm,Light Rain,300,2014-05-02 01:39:00
9:53 PM,62.1,57.9,86,29.72,4.0,West,6.9,-,0.25,Rain,Heavy Rain,270,2014-05-02 01:53:00
10:53 PM,61.0,57.9,90,29.71,10.0,WNW,4.6,-,0.01,,Overcast,290,2014-05-02 02:53:00
11:53 PM,60.1,48.9,67,29.72,10.0,NNW,6.9,-,N/A,,Scattered Clouds,330,2014-05-02 03:53:00